Total_Precipitation_Accumulation
0.01 0.00 0.01 0.01 0.03 0.05 0.05 0.04 0.04 0.03 0.02 0.01 0.01 0.01 0.02 0.03 0.05 0.12 0.16 0.12 0.19 0.33 0.13 0.01 0.01 0.01 0.02 0.05 0.06 0.02 0.11 0.10 0.11 0.17 0.17 0.10 0.10 0.03 0.03 0.01 0.00 0.02 0.04 0.05 0.09 0.14 0.10 0.01 0.00 0.02 0.04 0.01 0.00 0.02
0.02 0.01 0.01 0.01 0.01 0.01 0.03 0.05 0.06 0.03 0.01 0.01 0.00 0.00 0.01 0.01 0.04 0.16 0.38 0.17 0.25 0.59 0.52 0.08 0.01 0.00 0.00 0.00 0.02 0.06 0.11 0.14 0.16 0.18 0.13 0.12 0.09 0.05 0.04 0.03 0.00 0.01 0.02 0.02 0.03 0.01 0.00 0.00 0.00 0.00 0.01 0.02 0.03 0.04
0.01 0.01 0.00 0.01 0.01 0.01 0.01 0.02 0.03 0.04 0.02 0.01 0.00 0.00 0.00 0.00 0.01 0.10 0.26 0.21 0.49 1.14 1.05 0.42 0.09 0.00 0.00 0.01 0.02 0.22 0.27 0.09 0.12 0.10 0.17 0.22 0.22 0.09 0.06 0.02 0.00 0.00 0.00 0.04 0.05 0.02 0.00 0.00 0.00 0.00 0.00 0.04 0.09 0.13
0.00 0.01 0.01 0.01 0.01 0.01 0.01 0.01 0.01 0.01 0.01 0.01 0.01 0.00 0.00 0.00 0.01 0.05 0.17 0.21 0.45 1.07 0.88 0.33 0.02 0.00 0.00 0.01 0.04 0.15 0.23 0.10 0.15 0.26 0.70 0.81 0.41 0.11 0.04 0.01 0.02 0.00 0.01 0.00 0.01 0.01 0.00 0.01 0.00 0.00 0.00 0.00 0.01 0.05
0.01 0.01 0.01 0.01 0.01 0.01 0.01 0.01 0.00 0.00 0.01 0.01 0.02 0.01 0.01 0.01 0.04 0.05 0.08 0.12 0.19 0.62 0.75 0.16 0.01 0.01 0.01 0.02 0.02 0.04 0.08 0.14 0.27 0.69 0.99 0.67 0.31 0.22 0.18 0.14 0.07 0.00 0.00 0.01 0.01 0.00 0.01 0.05 0.06 0.05 0.04 0.01 0.00 0.01
0.01 0.01 0.02 0.02 0.02 0.02 0.01 0.01 0.00 0.00 0.01 0.01 0.03 0.03 0.08 0.05 0.06 0.24 0.46 0.21 0.21 0.43 0.91 0.55 0.10 0.01 0.02 0.04 0.07 0.08 0.07 0.20 0.43 0.81 0.57 0.27 0.10 0.19 0.36 0.16 0.02 0.00 0.00 0.00 0.01 0.00 0.00 0.00 0.04 0.02 0.01 0.00 0.00 0.00
0.01 0.01 0.01 0.01 0.01 0.02 0.01 0.01 0.01 0.01 0.01 0.01 0.05 0.07 0.09 0.16 0.26 0.36 0.27 0.10 0.16 0.47 1.07 0.58 0.16 0.01 0.03 0.05 0.06 0.12 0.21 0.50 0.70 0.76 0.51 0.30 0.18 0.38 0.64 0.24 0.01 0.00 0.00 0.00 0.00 0.00 0.00 0.03 0.09 0.09 0.10 0.04 0.01 0.01
0.01 0.01 0.01 0.02 0.02 0.02 0.02 0.01 0.01 0.01 0.02 0.04 0.10 0.13 0.10 0.13 0.23 0.26 0.13 0.08 0.19 0.68 0.79 0.47 0.07 0.02 0.01 0.01 0.04 0.05 0.13 0.23 0.31 0.32 0.27 0.13 0.07 0.12 0.12 0.01 0.00 0.00 0.00 0.00 0.00 0.00 0.00 0.04 0.10 0.10 0.12 0.16 0.12 0.05
0.01 0.01 0.01 0.01 0.01 0.01 0.01 0.01 0.01 0.02 0.06 0.13 0.27 0.35 0.33 0.23 0.15 0.05 0.03 0.11 0.27 0.51 0.48 0.22 0.03 0.01 0.01 0.02 0.01 0.02 0.03 0.06 0.04 0.02 0.00 0.01 0.02 0.03 0.00 0.00 0.00 0.00 0.00 0.00 0.00 0.00 0.00 0.03 0.09 0.07 0.06 0.08 0.19 0.17
0.00 0.00 0.00 0.01 0.01 0.02 0.02 0.01 0.01 0.04 0.12 0.24 0.48 0.74 0.52 0.13 0.10 0.09 0.19 0.33 0.47 0.43 0.36 0.08 0.05 0.01 0.01 0.01 0.03 0.02 0.02 0.02 0.05 0.01 0.01 0.04 0.01 0.00 0.00 0.00 0.00 0.02 0.02 0.01 0.01 0.01 0.01 0.01 0.03 0.06 0.06 0.07 0.08 0.11
0.01 0.01 0.01 0.01 0.01 0.01 0.02 0.01 0.01 0.04 0.13 0.32 0.52 0.56 0.22 0.26 0.57 0.51 0.32 0.27 0.17 0.11 0.04 0.01 0.03 0.00 0.00 0.01 0.02 0.03 0.04 0.04 0.07 0.03 0.04 0.02 0.00 0.01 0.05 0.05 0.01 0.01 0.01 0.02 0.02 0.03 0.04 0.03 0.04 0.04 0.04 0.05 0.06 0.07
0.01 0.01 0.01 0.01 0.01 0.01 0.01 0.01 0.01 0.06 0.16 0.41 0.44 0.43 0.56 0.85 0.97 0.75 0.30 0.12 0.03 0.01 0.00 0.00 0.01 0.00 0.01 0.01 0.04 0.02 0.02 0.04 0.04 0.04 0.08 0.01 0.03 0.02 0.00 0.00 0.00 0.00 0.00 0.01 0.02 0.05 0.08 0.10 0.11 0.11 0.13 0.16 0.19 0.27
0.01 0.01 0.01 0.01 0.01 0.01 0.01 0.00 0.01 0.04 0.19 0.32 0.32 0.35 0.47 0.62 0.67 0.37 0.13 0.02 0.01 0.01 0.00 0.00 0.00 0.00 0.01 0.02 0.04 0.02 0.02 0.02 0.03 0.06 0.02 0.02 0.02 0.00 0.00 0.00 0.00 0.00 0.00 0.00 0.00 0.04 0.10 0.22 0.26 0.35 0.51 0.51 0.47 0.52
0.03 0.02 0.01 0.01 0.01 0.00 0.00 0.00 0.01 0.04 0.22 0.43 0.33 0.24 0.22 0.27 0.10 0.04 0.01 0.00 0.00 0.00 0.00 0.00 0.01 0.01 0.01 0.01 0.03 0.02 0.01 0.02 0.02 0.01 0.02 0.01 0.00 0.00 0.00 0.01 0.00 0.02 0.02 0.03 0.04 0.08 0.14 0.26 0.43 0.54 0.61 0.58 0.50 0.49
0.02 0.02 0.02 0.01 0.00 0.00 0.05 0.07 0.07 0.17 0.37 0.33 0.29 0.23 0.05 0.03 0.01 0.00 0.00 0.00 0.00 0.00 0.00 0.00 0.01 0.01 0.01 0.03 0.02 0.02 0.03 0.01 0.01 0.03 0.02 0.00 0.00 0.00 0.00 0.01 0.01 0.04 0.12 0.16 0.14 0.18 0.26 0.31 0.35 0.48 0.53 0.49 0.42 0.43
0.02 0.02 0.01 0.02 0.01 0.01 0.06 0.21 0.34 0.28 0.35 0.24 0.16 0.12 0.05 0.02 0.02 0.01 0.00 0.00 0.00 0.00 0.00 0.01 0.03 0.05 0.04 0.03 0.03 0.02 0.02 0.03 0.04 0.00 0.00 0.00 0.00 0.01 0.01 0.02 0.04 0.22 0.36 0.36 0.35 0.35 0.33 0.33 0.32 0.34 0.31 0.31 0.36 0.34
0.06 0.06 0.11 0.09 0.07 0.07 0.14 0.37 0.39 0.30 0.19 0.15 0.04 0.02 0.03 0.04 0.02 0.01 0.01 0.00 0.00 0.00 0.01 0.01 0.02 0.02 0.02 0.04 0.02 0.01 0.03 0.03 0.00 0.00 0.00 0.00 0.01 0.04 0.12 0.14 0.15 0.19 0.32 0.45 0.47 0.40 0.41 0.36 0.19 0.10 0.25 0.22 0.10 0.05
0.14 0.22 0.15 0.12 0.16 0.25 0.23 0.23 0.35 0.17 0.11 0.07 0.03 0.01 0.01 0.02 0.02 0.02 0.00 0.00 0.02 0.04 0.04 0.02 0.01 0.01 0.01 0.01 0.05 0.04 0.00 0.00 0.00 0.00 0.00 0.01 0.06 0.16 0.20 0.14 0.15 0.16 0.26 0.39 0.39 0.46 0.44 0.21 0.07 0.05 0.03 0.01 0.00 0.00
0.09 0.05 0.03 0.06 0.25 0.48 0.43 0.10 0.21 0.23 0.07 0.01 0.01 0.00 0.01 0.02 0.01 0.00 0.01 0.01 0.01 0.01 0.01 0.00 0.00 0.02 0.04 0.03 0.02 0.00 0.00 0.00 0.00 0.01 0.01 0.02 0.07 0.12 0.14 0.12 0.14 0.17 0.24 0.27 0.19 0.18 0.13 0.02 0.00 0.00 0.00 0.00 0.01 0.01
0.03 0.01 0.01 0.02 0.28 0.42 0.30 0.11 0.06 0.18 0.06 0.01 0.01 0.01 0.02 0.02 0.01 0.01 0.02 0.02 0.01 0.03 0.02 0.01 0.02 0.01 0.00 0.01 0.00 0.00 0.00 0.00 0.01 0.01 0.01 0.04 0.05 0.02 0.04 0.06 0.12 0.14 0.13 0.09 0.05 0.02 0.00 0.01 0.01 0.00 0.00 0.00 0.01 0.01
0.05 0.02 0.02 0.08 0.29 0.31 0.23 0.16 0.05 0.08 0.03 0.03 0.04 0.02 0.02 0.04 0.03 0.02 0.01 0.01 0.04 0.06 0.02 0.00 0.00 0.00 0.00 0.00 0.00 0.00 0.01 0.01 0.01 0.00 0.01 0.06 0.08 0.05 0.07 0.09 0.10 0.07 0.03 0.02 0.02 0.04 0.01 0.02 0.01 0.01 0.00 0.01 0.01 0.01
0.13 0.13 0.19 0.20 0.48 0.32 0.17 0.08 0.02 0.03 0.02 0.02 0.05 0.03 0.04 0.08 0.05 0.01 0.02 0.01 0.01 0.01 0.00 0.00 0.00 0.00 0.00 0.01 0.02 0.03 0.01 0.00 0.00 0.00 0.02 0.02 0.03 0.04 0.06 0.09 0.05 0.02 0.02 0.02 0.01 0.01 0.02 0.01 0.01 0.00 0.00 0.01 0.00 0.00
0.09 0.18 0.32 0.28 0.36 0.26 0.14 0.07 0.03 0.02 0.03 0.07 0.08 0.06 0.09 0.06 0.02 0.02 0.02 0.01 0.01 0.01 0.00 0.00 0.00 0.00 0.02 0.06 0.06 0.01 0.00 0.00 0.00 0.01 0.01 0.00 0.00 0.01 0.03 0.03 0.01 0.00 0.01 0.00 0.00 0.01 0.01 0.00 0.00 0.00 0.00 0.00 0.00 0.00
0.19 0.40 0.38 0.15 0.08 0.15 0.20 0.03 0.03 0.01 0.05 0.16 0.11 0.08 0.08 0.03 0.09 0.04 0.02 0.02 0.03 0.02 0.01 0.00 0.00 0.02 0.06 0.06 0.03 0.01 0.00 0.00 0.00 0.00 0.00 0.00 0.01 0.01 0.00 0.00 0.00 0.00 0.00 0.00 0.00 0.01 0.00 0.00 0.00 0.00 0.00 0.00 0.00 0.00
0.34 0.30 0.19 0.05 0.02 0.14 0.06 0.02 0.02 0.01 0.03 0.14 0.04 0.06 0.02 0.04 0.07 0.03 0.02 0.04 0.05 0.06 0.04 0.04 0.06 0.04 0.03 0.06 0.05 0.04 0.01 0.00 0.00 0.01 0.02 0.00 0.00 0.01 0.03 0.01 0.01 0.00 0.00 0.00 0.00 0.00 0.00 0.00 0.00 0.00 0.00 0.00 0.00 0.00
0.16 0.09 0.02 0.00 0.01 0.02 0.00 0.00 0.00 0.00 0.02 0.05 0.03 0.01 0.01 0.01 0.01 0.06 0.07 0.05 0.05 0.07 0.10 0.10 0.06 0.07 0.07 0.02 0.03 0.02 0.01 0.00 0.00 0.01 0.05 0.02 0.00 0.00 0.02 0.02 0.02 0.04 0.00 0.00 0.00 0.00 0.00 0.00 0.00 0.00 0.00 0.00 0.00 0.00
0.03 0.00 0.00 0.00 0.00 0.00 0.00 0.00 0.01 0.02 0.02 0.01 0.01 0.01 0.01 0.01 0.01 0.06 0.11 0.02 0.02 0.07 0.10 0.06 0.03 0.01 0.02 0.01 0.00 0.00 0.00 0.00 0.00 0.01 0.03 0.00 0.00 0.00 0.00 0.00 0.02 0.04 0.00 0.00 0.00 0.00 0.00 0.00 0.00 0.00 0.00 0.00 0.00 0.00
0.00 0.00 0.00 0.00 0.00 0.00 0.00 0.02 0.03 0.02 0.02 0.01 0.00 0.00 0.01 0.01 0.03 0.07 0.05 0.06 0.02 0.02 0.03 0.05 0.04 0.01 0.00 0.00 0.00 0.00 0.00 0.00 0.00 0.00 0.00 0.00 0.00 0.00 0.00 0.00 0.00 0.00 0.00 0.00 0.00 0.00 0.00 0.00 0.00 0.00 0.00 0.00 0.00 0.00
0.00 0.00 0.00 0.00 0.01 0.01 0.01 0.02 0.02 0.01 0.01 0.01 0.00 0.00 0.00 0.03 0.08 0.08 0.10 0.04 0.01 0.00 0.03 0.08 0.12 0.04 0.01 0.00 0.01 0.01 0.01 0.00 0.00 0.00 0.00 0.01 0.01 0.02 0.00 0.00 0.00 0.00 0.00 0.00 0.00 0.00 0.00 0.00 0.00 0.00 0.00 0.00 0.00 0.00
0.01 0.00 0.00 0.00 0.00 0.01 0.02 0.01 0.00 0.00 0.00 0.00 0.00 0.00 0.02 0.07 0.18 0.18 0.18 0.11 0.04 0.03 0.02 0.01 0.01 0.01 0.01 0.01 0.03 0.03 0.02 0.00 0.00 0.00 0.00 0.00 0.01 0.01 0.00 0.00 0.00 0.00 0.00 0.00 0.00 0.00 0.00 0.00 0.00 0.00 0.00 0.00 0.00 0.00
0.01 0.00 0.00 0.00 0.04 0.08 0.05 0.01 0.01 0.00 0.00 0.00 0.00 0.00 0.02 0.08 0.15 0.16 0.15 0.19 0.10 0.03 0.02 0.03 0.03 0.03 0.01 0.00 0.01 0.00 0.01 0.02 0.00 0.00 0.00 0.00 0.00 0.00 0.00 0.00 0.00 0.00 0.00 0.00 0.00 0.00 0.00 0.00 0.00 0.00 0.00 0.00 0.00 0.00
0.02 0.00 0.00 0.01 0.09 0.12 0.05 0.02 0.01 0.03 0.02 0.01 0.02 0.01 0.02 0.00 0.04 0.13 0.22 0.24 0.21 0.08 0.04 0.01 0.02 0.05 0.02 0.01 0.00 0.00 0.00 0.01 0.00 0.00 0.00 0.00 0.00 0.00 0.00 0.00 0.00 0.00 0.00 0.00 0.00 0.00 0.00 0.00 0.00 0.00 0.00 0.00 0.00 0.00
0.01 0.00 0.00 0.00 0.04 0.05 0.03 0.03 0.04 0.08 0.08 0.08 0.12 0.07 0.03 0.00 0.02 0.07 0.14 0.14 0.07 0.02 0.02 0.02 0.03 0.03 0.01 0.01 0.01 0.01 0.01 0.01 0.00 0.00 0.00 0.00 0.00 0.00 0.00 0.00 0.00 0.00 0.00 0.00 0.00 0.00 0.00 0.00 0.00 0.00 0.00 0.00 0.00 0.00